Location: Newark
(30.0333°N, 31.2167°E)
Time: 19:21:20
(UTC+00:00)

Tiros 1 - Pass Details

Date: 31 January 2020
Orbit: 631 x 664 km, 48.4° (Epoch: 19 February)

Event Time Altitude Azimuth Distance (km) Brightness Sun altitude
Rises 08:28:14 0° 259° (W) 2,912 10.3 36.7°
Reaches altitude 10° 08:30:52 10° 272° (W) 2,010 9.5 37.0°
Maximum altitude 08:34:43 26° 329° (NNW) 1,263 8.4 37.4°
Drops below altitude 10° 08:38:38 10° 26° (NNE) 2,029 9.5 37.8°
Sets 08:41:18 0° 39° (NE) 2,946 10.3 38.0°
